{"data":{"norad_id":64951,"epoch":"2026-09-20T12:37:33.284352Z","epoch_age_seconds":121915,"freshness":"FRESH","line1":"1 64951U 25158V   26263.52607968  .00010316  00000+0  32142-3 0  9993","line2":"2 64951  97.2848 121.8852 0000282  16.7094 343.4158 15.33446528 64718","mean_motion":15.33446528,"eccentricity":2.82e-5,"inclination_deg":97.2848,"raan_deg":121.8852,"arg_perigee_deg":16.7094,"mean_anomaly_deg":343.4158,"bstar":0.00032142,"rev_number":6471,"period_min":93.906111084168,"perigee_km":465.34563657623,"apogee_km":465.73161988166,"semimajor_km":6843.6756282289,"source":"CELESTRAK","updated_at":"2026-09-21T09:00:35.490204Z"}}